Albogasio, Italy

4:11 AM CET on February 24, 2018 (GMT +0100)
Albogasio

Weather History for 06770 - August, 2013

Change the Weather History Date:

Sunday, August 11, 2013

  Actual Average Record
Temperature  
Mean Temperature 70 °F -  
Max Temperature 84 °F 73 °F - ()
Min Temperature 57 °F 58 °F - ()
Cooling Degree Days 6    
Growing Degree Days 20 (Base 50)    
Moisture  
Dew Point 56 °F    
Average Humidity 58    
Maximum Humidity 88    
Minimum Humidity 33    
Precipitation  
Precipitation 0.00 in 0.22 in - ()
Sea Level Pressure  
Sea Level Pressure 30.03 in    
Wind  
Wind Speed 3 mph ()    
Max Wind Speed 7 mph    
Max Gust Speed -    
Visibility 6.2 miles    
Events      
T = Trace of Precipitation, MM = Missing Value Source: Averaged Metar Reports

Daily Weather History Graph

Daily Weather History Graph

Search for Another Location

Airport or City:

Trip Planner

Search our weather history database for the weather conditions in past years. The results will help you decide how hot, cold, wet, or windy it might be!

Date:

Astronomy

Aug. 11, 2013 Rise Set
Actual Time 6:18 AM CEST 8:39 PM CEST
Civil Twilight 5:45 AM CEST 9:12 PM CEST
Nautical Twilight 5:04 AM CEST 9:53 PM CEST
Astronomical Twilight 4:17 AM CEST 10:39 PM CEST
Moon 11:08 AM CEST (8/11) 10:25 PM CEST (8/11)
Length of Visible Light 15h 26m
Length of Day
14h 20m
Waxing Crescent, 19% of the Moon is Illuminated
Aug 11
Waxing Crescent
Aug 14
First Quarter
Aug 21
Full
Aug 28
Last Quarter
Sep 5
New

Hourly Weather History & Observations

Time (CEST) Temp. Heat Index Dew Point Humidity Pressure Visibility Wind Dir Wind Speed Gust Speed Precip Events Conditions
12:00 AM 69 °F - 49 °F 39% 30.03 in - North 3.5 mph - -  
12:20 AM 64.4 °F - 55.4 °F 73% 30.04 in - Variable 1.2 mph - N/A   Clear
12:50 AM 62.6 °F - 55.4 °F 77% 30.06 in - Variable 1.2 mph - N/A   Clear
1:00 AM 69 °F - 49 °F 38% 30.04 in - North 4.6 mph - -  
1:20 AM 62.6 °F - 55.4 °F 77% 30.06 in - Variable 1.2 mph - N/A   Clear
1:50 AM 64.4 °F - 55.4 °F 73% 30.06 in - SE 3.5 mph - N/A   Clear
2:20 AM 62.6 °F - 55.4 °F 77% 30.06 in - Variable 1.2 mph - N/A   Clear
2:50 AM 60.8 °F - 55.4 °F 82% 30.06 in - Variable 1.2 mph - N/A   Clear
3:00 AM 67 °F - 49 °F 42% 30.04 in - North 4.6 mph - -  
3:20 AM 62.6 °F - 55.4 °F 77% 30.06 in - NNE 2.3 mph - N/A   Clear
3:50 AM 60.8 °F - 55.4 °F 82% 30.04 in - Variable 1.2 mph - N/A   Clear
4:00 AM 65 °F - 49 °F 45% 30.04 in - NNW 2.3 mph - -  
4:20 AM 59.0 °F - 55.4 °F 88% 30.06 in - Variable 1.2 mph - N/A   Clear
4:50 AM 59.0 °F - 53.6 °F 82% 30.04 in - Variable 2.3 mph - N/A   Clear
5:20 AM 57.2 °F - 53.6 °F 88% 30.06 in 6.2 mi North 2.3 mph - N/A   Unknown
5:50 AM 59.0 °F - 53.6 °F 82% 30.06 in 6.2 mi North 2.3 mph - N/A   Partly Cloudy
6:00 AM 65 °F - 48 °F 43% 30.05 in - NNW 4.6 mph - -  
6:20 AM 59.0 °F - 53.6 °F 82% 30.06 in 6.2 mi Variable 1.2 mph - N/A   Unknown
6:50 AM 59.0 °F - 53.6 °F 82% 30.06 in 6.2 mi Variable 1.2 mph - N/A   Mostly Cloudy
7:00 AM 65 °F - 49 °F 47% 30.06 in - NNW 3.5 mph - -  
7:20 AM 59.0 °F - 55.4 °F 88% 30.06 in 6.2 mi North 2.3 mph - N/A   Mostly Cloudy
7:50 AM 60.8 °F - 55.4 °F 82% 30.06 in 6.2 mi North 2.3 mph - N/A   Mostly Cloudy
8:20 AM 62.6 °F - 55.4 °F 77% 30.06 in 6.2 mi Calm Calm - N/A   Mostly Cloudy
8:50 AM 64.4 °F - 57.2 °F 77% 30.06 in 6.2 mi North 2.3 mph - N/A   Mostly Cloudy
9:00 AM 69 °F - 53 °F 46% 30.07 in - North 1.2 mph - -  
9:20 AM 64.4 °F - 57.2 °F 77% 30.09 in 6.2 mi North 2.3 mph - N/A   Mostly Cloudy
9:50 AM 68.0 °F - 57.2 °F 68% 30.09 in 6.2 mi Variable 2.3 mph - N/A   Mostly Cloudy
10:00 AM 71 °F - 53 °F 43% 30.07 in - SSW 2.3 mph - -  
10:20 AM 69.8 °F - 57.2 °F 64% 30.09 in 6.2 mi Variable 2.3 mph - N/A   Scattered Clouds
10:50 AM 73.4 °F - 53.6 °F 50% 30.09 in 6.2 mi Variable 3.5 mph - N/A   Partly Cloudy
11:20 AM 75.2 °F - 51.8 °F 44% 30.09 in 6.2 mi Variable 3.5 mph - N/A   Partly Cloudy
11:50 AM 78.8 °F - 55.4 °F 44% 30.09 in 6.2 mi Variable 2.3 mph - N/A   Scattered Clouds
12:00 PM 76 °F - 59 °F 46% 30.05 in - ESE 2.3 mph - -  
12:20 PM 77.0 °F - 57.2 °F 50% 30.06 in 6.2 mi Variable 2.3 mph - N/A   Scattered Clouds
12:50 PM 80.6 °F 80.8 °F 57.2 °F 45% 30.06 in 6.2 mi South 3.5 mph - N/A   Partly Cloudy
1:00 PM 79 °F - 56 °F 34% 30.03 in - ESE 2.3 mph - -  
1:20 PM 80.6 °F 80.5 °F 55.4 °F 42% 30.06 in 6.2 mi South 4.6 mph - N/A   Scattered Clouds
1:50 PM 82.4 °F 82.5 °F 59.0 °F 45% 30.04 in 6.2 mi South 4.6 mph - N/A   Scattered Clouds
2:20 PM 80.6 °F 81.1 °F 59.0 °F 48% 30.04 in 6.2 mi South 5.8 mph - N/A   Scattered Clouds
2:50 PM 82.4 °F 82.5 °F 59.0 °F 45% 30.04 in 6.2 mi South 5.8 mph - N/A   Scattered Clouds
3:00 PM 82 °F - 62 °F 40% 29.99 in - SE 4.6 mph - -  
3:20 PM 82.4 °F 82.5 °F 59.0 °F 45% 30.01 in 6.2 mi South 4.6 mph - N/A   Scattered Clouds
3:50 PM 82.4 °F 82.5 °F 59.0 °F 45% 30.01 in 6.2 mi South 6.9 mph - N/A   Scattered Clouds
4:00 PM 81 °F - 59 °F 37% 29.96 in - SSW 3.5 mph - -  
4:20 PM 82.4 °F 82.5 °F 59.0 °F 45% 30.01 in 6.2 mi South 5.8 mph - N/A   Scattered Clouds
4:50 PM 84.2 °F 83.8 °F 59.0 °F 42% 30.01 in 6.2 mi South 4.6 mph - N/A   Scattered Clouds
5:20 PM 84.2 °F 83.8 °F 59.0 °F 42% 29.98 in 6.2 mi SSW 5.8 mph - N/A   Partly Cloudy
5:50 PM 82.4 °F 82.0 °F 57.2 °F 42% 29.98 in 6.2 mi SW 4.6 mph - N/A   Partly Cloudy
6:00 PM 81 °F - 57 °F 33% 29.95 in - West 4.6 mph - -  
6:20 PM 82.4 °F 82.5 °F 59.0 °F 45% 29.98 in 6.2 mi WSW 4.6 mph - N/A   Partly Cloudy
6:50 PM 82.4 °F 82.5 °F 59.0 °F 45% 29.98 in 6.2 mi West 5.8 mph - N/A   Partly Cloudy
7:00 PM 80 °F - 57 °F 35% 29.94 in - WSW 3.5 mph - -  
7:20 PM 80.6 °F 81.1 °F 59.0 °F 48% 29.98 in 6.2 mi West 3.5 mph - N/A   Partly Cloudy
7:50 PM 77.0 °F - 60.8 °F 57% 29.98 in 6.2 mi Variable 3.5 mph - N/A   Partly Cloudy
8:20 PM 75.2 °F - 60.8 °F 61% 29.98 in 6.2 mi Variable 3.5 mph - N/A   Partly Cloudy
8:50 PM 73.4 °F - 60.8 °F 65% 29.98 in 6.2 mi NNE 4.6 mph - N/A   Partly Cloudy
9:00 PM 76 °F - 60 °F 47% 29.96 in - NNW 3.5 mph - -  
9:20 PM 71.6 °F - 59.0 °F 64% 30.01 in 6.2 mi Variable 2.3 mph - N/A   Partly Cloudy
9:50 PM 71.6 °F - 59.0 °F 64% 30.01 in 6.2 mi Variable 1.2 mph - N/A   Partly Cloudy
10:00 PM 73 °F - 59 °F 53% 29.99 in - NNW 3.5 mph - -  
10:20 PM 69.8 °F - 59.0 °F 68% 30.01 in 6.2 mi Variable 1.2 mph - N/A   Unknown
10:50 PM 69.8 °F - 59.0 °F 68% 30.01 in - Variable 1.2 mph - N/A   Clear
11:20 PM 68.0 °F - 59.0 °F 73% 30.01 in - Variable 1.2 mph - N/A   Clear
11:50 PM 68.0 °F - 60.8 °F 78% 30.04 in - Variable 1.2 mph - N/A   Clear